Time,TemperatureF,DewpointF,PressureIn,WindDirection,WindDirectionDegrees,WindSpeedMPH,WindSpeedGustMPH,Humidity,HourlyPrecipIn,Conditions,Clouds,dailyrainin,SoftwareType,DateUTC
2013-10-07 00:12:00,76.7,72.0,29.88,ESE,123,0.0,1.0,86,0.00,,,0.00,weatherlink.com 1.10,2013-10-07 04:12:00,
2013-10-07 00:27:00,76.7,72.0,29.88,ESE,117,0.0,1.0,85,0.00,,,0.00,weatherlink.com 1.10,2013-10-07 04:27:00,
2013-10-07 00:42:00,77.0,72.0,29.87,ESE,106,0.0,1.0,85,0.00,,,0.00,weatherlink.com 1.10,2013-10-07 04:42:00,
2013-10-07 00:57:00,76.6,72.0,29.87,ESE,119,0.0,1.0,85,0.00,,,0.00,weatherlink.com 1.10,2013-10-07 04:57:00,
2013-10-07 01:12:00,76.0,72.0,29.86,ESE,114,0.0,1.0,87,0.00,,,0.00,weatherlink.com 1.10,2013-10-07 05:12:00,
2013-10-07 01:27:00,75.7,72.0,29.86,ESE,117,0.0,1.0,87,0.00,,,0.00,weatherlink.com 1.10,2013-10-07 05:27:00,
2013-10-07 01:42:00,75.4,72.0,29.86,ESE,110,0.0,1.0,89,0.00,,,0.00,weatherlink.com 1.10,2013-10-07 05:42:00,
2013-10-07 01:57:00,75.3,72.0,29.86,ESE,119,0.0,1.0,89,0.00,,,0.00,weatherlink.com 1.10,2013-10-07 05:57:00,
2013-10-07 02:12:00,74.8,71.0,29.86,ESE,120,0.0,1.0,89,0.00,,,0.00,weatherlink.com 1.10,2013-10-07 06:12:00,
2013-10-07 02:27:00,74.7,72.0,29.85,ESE,108,0.0,1.0,91,0.00,,,0.00,weatherlink.com 1.10,2013-10-07 06:27:00,
2013-10-07 02:42:00,74.6,72.0,29.84,ESE,117,0.0,1.0,90,0.00,,,0.00,weatherlink.com 1.10,2013-10-07 06:42:00,
2013-10-07 02:57:00,74.1,71.0,29.84,ESE,115,0.0,0.0,91,0.00,,,0.00,weatherlink.com 1.10,2013-10-07 06:57:00,
2013-10-07 03:13:00,73.7,72.0,29.84,ESE,123,0.0,1.0,93,0.00,,,0.00,weatherlink.com 1.10,2013-10-07 07:13:00,
2013-10-07 03:27:00,73.6,72.0,29.84,ESE,121,0.0,1.0,93,0.00,,,0.00,weatherlink.com 1.10,2013-10-07 07:27:00,
2013-10-07 03:42:00,73.6,72.0,29.84,ESE,108,0.0,1.0,93,0.00,,,0.00,weatherlink.com 1.10,2013-10-07 07:42:00,
2013-10-07 03:57:00,73.4,71.0,29.84,ESE,121,0.0,1.0,93,0.00,,,0.00,weatherlink.com 1.10,2013-10-07 07:57:00,
2013-10-07 04:12:00,73.8,72.0,29.84,South,173,0.0,1.0,94,0.00,,,0.00,weatherlink.com 1.10,2013-10-07 08:12:00,
2013-10-07 04:27:00,74.0,72.0,29.83,SW,233,0.0,1.0,94,0.00,,,0.00,weatherlink.com 1.10,2013-10-07 08:27:00,
2013-10-07 04:42:00,73.9,72.0,29.84,ESE,121,0.0,1.0,94,0.00,,,0.00,weatherlink.com 1.10,2013-10-07 08:42:00,
2013-10-07 04:57:00,73.8,72.0,29.83,ESE,118,0.0,1.0,94,0.00,,,0.00,weatherlink.com 1.10,2013-10-07 08:57:00,
2013-10-07 05:12:00,73.8,72.0,29.83,SE,124,0.0,1.0,95,0.00,,,0.00,weatherlink.com 1.10,2013-10-07 09:12:00,
2013-10-07 05:27:00,74.0,73.0,29.83,SE,124,0.0,1.0,95,0.00,,,0.00,weatherlink.com 1.10,2013-10-07 09:27:00,
2013-10-07 05:42:00,74.2,73.0,29.84,SSE,151,0.0,1.0,95,0.00,,,0.00,weatherlink.com 1.10,2013-10-07 09:42:00,
2013-10-07 05:57:00,74.1,73.0,29.84,SE,126,0.0,1.0,95,0.00,,,0.00,weatherlink.com 1.10,2013-10-07 09:57:00,
2013-10-07 06:12:00,74.0,73.0,29.84,ESE,110,0.0,1.0,95,0.00,,,0.00,weatherlink.com 1.10,2013-10-07 10:12:00,
2013-10-07 06:27:00,73.8,72.0,29.84,ESE,108,0.0,1.0,95,0.00,,,0.00,weatherlink.com 1.10,2013-10-07 10:27:00,
2013-10-07 06:42:00,73.6,72.0,29.85,ESE,117,0.0,0.0,95,0.00,,,0.00,weatherlink.com 1.10,2013-10-07 10:42:00,
2013-10-07 06:57:00,73.1,72.0,29.86,ESE,111,0.0,0.0,95,0.00,,,0.00,weatherlink.com 1.10,2013-10-07 10:57:00,
2013-10-07 07:12:00,72.9,71.0,29.86,ESE,114,0.0,1.0,95,0.00,,,0.00,weatherlink.com 1.10,2013-10-07 11:12:00,
2013-10-07 07:27:00,73.0,72.0,29.86,ESE,123,0.0,1.0,96,0.00,,,0.00,weatherlink.com 1.10,2013-10-07 11:27:00,
2013-10-07 07:42:00,73.9,73.0,29.87,ESE,111,0.0,1.0,96,0.00,,,0.00,weatherlink.com 1.10,2013-10-07 11:42:00,
2013-10-07 07:57:00,75.8,74.0,29.86,ESE,108,0.0,1.0,95,0.00,,,0.00,weatherlink.com 1.10,2013-10-07 11:57:00,
2013-10-07 08:12:00,78.4,76.0,29.87,ESE,117,0.0,1.0,92,0.00,,,0.00,weatherlink.com 1.10,2013-10-07 12:12:00,
2013-10-07 08:27:00,80.5,76.0,29.87,ESE,120,0.0,1.0,87,0.00,,,0.00,weatherlink.com 1.10,2013-10-07 12:27:00,
2013-10-07 08:42:00,82.7,77.0,29.87,SSW,204,0.0,1.0,82,0.00,,,0.00,weatherlink.com 1.10,2013-10-07 12:42:00,
2013-10-07 08:57:00,82.7,77.0,29.87,SSW,210,0.0,3.0,82,0.00,,,0.00,weatherlink.com 1.10,2013-10-07 12:57:00,
2013-10-07 09:12:00,84.2,77.0,29.87,South,186,4.0,6.0,79,0.00,,,0.00,weatherlink.com 1.10,2013-10-07 13:12:00,
2013-10-07 09:27:00,84.5,77.0,29.88,South,187,1.0,9.0,77,0.00,,,0.00,weatherlink.com 1.10,2013-10-07 13:27:00,
2013-10-07 09:43:00,84.5,76.0,29.88,SSW,207,4.0,7.0,76,0.00,,,0.00,weatherlink.com 1.10,2013-10-07 13:43:00,
2013-10-07 09:58:00,85.2,76.0,29.87,SE,124,1.0,8.0,73,0.00,,,0.00,weatherlink.com 1.10,2013-10-07 13:58:00,
2013-10-07 10:13:00,85.8,76.0,29.88,West,278,1.0,9.0,73,0.00,,,0.00,weatherlink.com 1.10,2013-10-07 14:13:00,
2013-10-07 10:28:00,86.8,76.0,29.88,SW,225,1.0,10.0,71,0.00,,,0.00,weatherlink.com 1.10,2013-10-07 14:28:00,
2013-10-07 10:43:00,87.2,76.0,29.88,SSW,200,5.0,10.0,69,0.00,,,0.00,weatherlink.com 1.10,2013-10-07 14:43:00,
2013-10-07 10:58:00,86.8,76.0,29.88,SSE,150,2.0,8.0,69,0.00,,,0.00,weatherlink.com 1.10,2013-10-07 14:58:00,
2013-10-07 11:13:00,88.0,75.0,29.88,SSE,162,1.0,9.0,65,0.00,,,0.00,weatherlink.com 1.10,2013-10-07 15:13:00,
2013-10-07 11:28:00,88.6,75.0,29.87,NW,309,0.0,9.0,64,0.00,,,0.00,weatherlink.com 1.10,2013-10-07 15:28:00,
2013-10-07 11:43:00,89.1,75.0,29.87,WNW,297,0.0,9.0,64,0.00,,,0.00,weatherlink.com 1.10,2013-10-07 15:43:00,
2013-10-07 11:58:00,89.3,76.0,29.86,SSE,166,2.0,9.0,64,0.00,,,0.00,weatherlink.com 1.10,2013-10-07 15:58:00,
2013-10-07 12:13:00,90.5,76.0,29.86,West,267,0.0,10.0,62,0.00,,,0.00,weatherlink.com 1.10,2013-10-07 16:13:00,
2013-10-07 12:28:00,90.0,76.0,29.85,WSW,249,0.0,5.0,63,0.00,,,0.00,weatherlink.com 1.10,2013-10-07 16:28:00,
2013-10-07 12:43:00,90.7,75.0,29.84,WSW,248,3.0,6.0,61,0.00,,,0.00,weatherlink.com 1.10,2013-10-07 16:43:00,
2013-10-07 12:58:00,90.4,76.0,29.84,WSW,242,2.0,8.0,63,0.00,,,0.00,weatherlink.com 1.10,2013-10-07 16:58:00,
2013-10-07 13:13:00,90.1,75.0,29.83,SSW,210,1.0,5.0,62,0.00,,,0.00,weatherlink.com 1.10,2013-10-07 17:13:00,
2013-10-07 13:28:00,89.0,76.0,29.83,SW,226,1.0,7.0,65,0.00,,,0.00,weatherlink.com 1.10,2013-10-07 17:28:00,
2013-10-07 13:43:00,90.8,77.0,29.82,SE,136,0.0,6.0,64,0.00,,,0.00,weatherlink.com 1.10,2013-10-07 17:43:00,
2013-10-07 13:58:00,91.9,77.0,29.82,WSW,238,5.0,7.0,61,0.00,,,0.00,weatherlink.com 1.10,2013-10-07 17:58:00,
2013-10-07 14:13:00,91.2,75.0,29.81,SSW,207,1.0,8.0,59,0.00,,,0.00,weatherlink.com 1.10,2013-10-07 18:13:00,
2013-10-07 14:28:00,92.0,75.0,29.80,South,187,1.0,12.0,58,0.00,,,0.00,weatherlink.com 1.10,2013-10-07 18:28:00,
2013-10-07 14:43:00,93.0,74.0,29.80,North,7,5.0,11.0,55,0.00,,,0.00,weatherlink.com 1.10,2013-10-07 18:43:00,
2013-10-07 14:58:00,92.1,73.0,29.80,WNW,301,2.0,10.0,54,0.00,,,0.00,weatherlink.com 1.10,2013-10-07 18:58:00,
2013-10-07 15:13:00,91.3,73.0,29.80,NW,316,2.0,9.0,56,0.00,,,0.00,weatherlink.com 1.10,2013-10-07 19:13:00,
2013-10-07 15:28:00,90.7,73.0,29.79,NW,312,1.0,9.0,56,0.00,,,0.00,weatherlink.com 1.10,2013-10-07 19:28:00,
2013-10-07 15:43:00,86.4,71.0,29.82,WSW,257,6.0,18.0,61,0.00,,,0.00,weatherlink.com 1.10,2013-10-07 19:43:00,
2013-10-07 15:58:00,79.6,71.0,29.83,WNW,302,4.0,16.0,75,0.00,,,0.00,weatherlink.com 1.10,2013-10-07 19:58:00,
2013-10-07 16:13:00,75.5,71.0,29.82,NNW,345,5.0,13.0,86,0.03,,,0.03,weatherlink.com 1.10,2013-10-07 20:13:00,
2013-10-07 16:28:00,74.4,71.0,29.80,WNW,301,0.0,7.0,90,0.04,,,0.04,weatherlink.com 1.10,2013-10-07 20:28:00,
2013-10-07 16:43:00,74.6,72.0,29.80,SSW,195,0.0,0.0,91,0.05,,,0.05,weatherlink.com 1.10,2013-10-07 20:43:00,
2013-10-07 16:58:00,75.3,73.0,29.82,SW,214,0.0,0.0,92,0.05,,,0.05,weatherlink.com 1.10,2013-10-07 20:58:00,
2013-10-07 17:13:00,75.6,74.0,29.82,SSW,213,0.0,1.0,93,0.02,,,0.05,weatherlink.com 1.10,2013-10-07 21:13:00,
2013-10-07 17:28:00,75.5,73.0,29.82,WNW,295,0.0,2.0,92,0.01,,,0.05,weatherlink.com 1.10,2013-10-07 21:28:00,
2013-10-07 17:43:00,75.8,74.0,29.83,NW,305,0.0,3.0,94,0.01,,,0.06,weatherlink.com 1.10,2013-10-07 21:43:00,
2013-10-07 17:58:00,75.8,74.0,29.82,NNE,20,0.0,0.0,94,0.01,,,0.06,weatherlink.com 1.10,2013-10-07 21:58:00,
2013-10-07 18:13:00,75.9,74.0,29.84,NW,321,2.0,3.0,95,0.01,,,0.06,weatherlink.com 1.10,2013-10-07 22:13:00,
2013-10-07 18:29:00,75.8,74.0,29.83,East,97,0.0,4.0,95,0.03,,,0.08,weatherlink.com 1.10,2013-10-07 22:29:00,
2013-10-07 18:44:00,75.5,74.0,29.83,ESE,105,0.0,1.0,95,0.03,,,0.09,weatherlink.com 1.10,2013-10-07 22:44:00,
2013-10-07 18:59:00,75.4,74.0,29.84,East,83,0.0,1.0,96,0.03,,,0.09,weatherlink.com 1.10,2013-10-07 22:59:00,
2013-10-07 19:14:00,75.5,74.0,29.84,SSE,156,0.0,5.0,96,0.03,,,0.00,weatherlink.com 1.10,2013-10-07 23:14:00,
2013-10-07 19:29:00,75.2,74.0,29.84,East,87,2.0,2.0,96,0.01,,,0.00,weatherlink.com 1.10,2013-10-07 23:29:00,
2013-10-07 19:44:00,74.8,74.0,29.84,SE,126,0.0,2.0,96,0.02,,,0.02,weatherlink.com 1.10,2013-10-07 23:44:00,
2013-10-07 19:59:00,74.6,73.0,29.84,ESE,113,0.0,1.0,96,0.03,,,0.03,weatherlink.com 1.10,2013-10-07 23:59:00,
2013-10-07 20:14:00,74.7,74.0,29.84,SE,129,0.0,1.0,96,0.03,,,0.03,weatherlink.com 1.10,2013-10-08 00:14:00,
2013-10-07 20:29:00,74.6,73.0,29.85,SE,125,0.0,2.0,96,0.03,,,0.03,weatherlink.com 1.10,2013-10-08 00:29:00,
2013-10-07 20:44:00,74.4,73.0,29.85,SE,125,0.0,2.0,96,0.01,,,0.03,weatherlink.com 1.10,2013-10-08 00:44:00,
2013-10-07 20:59:00,74.5,74.0,29.86,ESE,111,0.0,1.0,97,0.00,,,0.03,weatherlink.com 1.10,2013-10-08 00:59:00,
2013-10-07 21:14:00,74.5,74.0,29.86,ESE,111,0.0,1.0,97,0.00,,,0.03,weatherlink.com 1.10,2013-10-08 01:14:00,
2013-10-07 21:29:00,74.6,74.0,29.86,ESE,111,0.0,0.0,97,0.00,,,0.03,weatherlink.com 1.10,2013-10-08 01:29:00,
2013-10-07 21:44:00,74.7,74.0,29.86,ESE,109,0.0,0.0,97,0.00,,,0.03,weatherlink.com 1.10,2013-10-08 01:44:00,
2013-10-07 21:59:00,74.8,74.0,29.87,ESE,108,0.0,0.0,97,0.00,,,0.03,weatherlink.com 1.10,2013-10-08 01:59:00,
2013-10-07 22:14:00,74.9,74.0,29.87,ESE,109,0.0,0.0,97,0.00,,,0.03,weatherlink.com 1.10,2013-10-08 02:14:00,
2013-10-07 22:29:00,74.9,74.0,29.87,ESE,108,0.0,0.0,97,0.00,,,0.03,weatherlink.com 1.10,2013-10-08 02:29:00,
2013-10-07 22:44:00,74.8,74.0,29.87,SSE,148,0.0,0.0,97,0.00,,,0.03,weatherlink.com 1.10,2013-10-08 02:44:00,
2013-10-07 22:59:00,74.9,74.0,29.87,ESE,118,0.0,1.0,98,0.00,,,0.03,weatherlink.com 1.10,2013-10-08 02:59:00,
2013-10-07 23:14:00,75.1,74.0,29.86,SE,124,0.0,1.0,97,0.00,,,0.03,weatherlink.com 1.10,2013-10-08 03:14:00,
2013-10-07 23:29:00,75.3,75.0,29.86,ESE,106,0.0,1.0,98,0.00,,,0.03,weatherlink.com 1.10,2013-10-08 03:29:00,
2013-10-07 23:44:00,75.3,74.0,29.85,ESE,117,0.0,1.0,97,0.00,,,0.03,weatherlink.com 1.10,2013-10-08 03:44:00,
2013-10-07 23:59:00,75.2,74.0,29.85,SSW,210,0.0,1.0,97,0.00,,,0.03,weatherlink.com 1.10,2013-10-08 03:59:00,